Location: Burgberg
(50.1428°N, 11.0671°E)
Time: 17:24:42
(UTC+00:00)

STARLINK-81 - Pass Details

Date: 26 January 2020
Orbit: 528 x 531 km, 53.0° (Epoch: 19 February)

Event Time Altitude Azimuth Distance (km) Brightness Sun altitude
Exits shadow 06:17:55 - 281° (W) 1,934 5.7 -6.7°
Reaches altitude 10° 06:18:18 10° 282° (WNW) 1,781 5.6 -6.7°
Maximum altitude 06:22:17 56° 1° (N) 641 3.8 -6.1°
Drops below altitude 10° 06:26:16 10° 80° (E) 1,784 7.2 -5.5°
Sets 06:28:31 0° 85° (E) 2,674 8.4 -5.2°
